Weather reports worldwide

Advertisment
Milano/Linate, Italy (16080): temperature & dewpoint: 15.01.2018 04:00:00 - 21.01.2018 04:00:00 (CET)Milano/Linate, Italy (16080): wind speed: 15.01.2018 04:00:00 - 21.01.2018 04:00:00 (CET)Milano/Linate, Italy (16080): wind direction: 15.01.2018 04:00:00 - 21.01.2018 04:00:00 (CET)Milano/Linate, Italy (16080): reduced air pressure: 15.01.2018 04:00:00 - 21.01.2018 04:00:00 (CET)Milano/Linate, Italy (16080): visibility: 15.01.2018 04:00:00 - 21.01.2018 04:00:00 (CET)
Date & Time tt [°C] td [°C] ff [km/h] ff [kn] dd ppp [hPa] vv [km]
21.01.2018 04:00:00 - - - - - - -
21.01.2018 03:00:00 5,0 0,0 5 3 NNW - 10
21.01.2018 02:00:00 5,0 1,0 5 3 N - 10
21.01.2018 01:00:00 5,2 1,6 5 3 N 1004,6 10
21.01.2018 00:00:00 5,0 2,0 4 2 - - 10
20.01.2018 23:00:00 5,0 2,0 8 4 NNE - 10
20.01.2018 22:00:00 4,4 1,6 8 4 N 1007,3 10
20.01.2018 21:00:00 5,0 2,0 8 4 NE - 10
20.01.2018 20:00:00 4,0 2,0 4 2 - - 10
20.01.2018 19:00:00 4,4 1,8 2 1 S 1009,0 10
20.01.2018 18:00:00 6,0 2,0 8 4 ESE - 10
20.01.2018 17:00:00 7,0 2,0 9 5 E - 10
20.01.2018 16:00:00 7,0 2,2 11 6 E 1010,2 8
20.01.2018 15:00:00 7,0 2,0 9 5 E - 8
20.01.2018 14:00:00 7,0 2,0 8 4 ENE - 10
20.01.2018 13:00:00 6,3 1,8 5 3 S 1013,1 10
20.01.2018 12:00:00 6,0 1,0 8 4 ESE - 10
20.01.2018 11:00:00 4,0 1,0 4 2 NE - 10
20.01.2018 10:00:00 2,2 1,2 2 1 NE 1014,6 5
20.01.2018 09:00:00 0,0 0,0 0 0 N - 3,0
20.01.2018 08:00:00 -2,0 -3,0 5 3 - - 1,5
20.01.2018 07:00:00 -1,6 -2,1 5 3 SSE 1014,5 10
20.01.2018 06:00:00 1,0 1,0 2 1 - - 10
20.01.2018 05:00:00 1,0 0,0 8 4 SW - 10
20.01.2018 04:00:00 1,2 0,0 4 2 NNW 1013,4 20
20.01.2018 03:00:00 2,0 1,0 5 3 W - 10
20.01.2018 02:00:00 2,0 0,0 0 0 N - 10
20.01.2018 01:00:00 3,0 0,3 8 4 N 1013,2 20
20.01.2018 00:00:00 3,0 1,0 9 5 N - 10
19.01.2018 23:00:00 4,0 1,0 4 2 - - 10
19.01.2018 22:00:00 3,6 1,4 5 3 ENE 1012,7 20
19.01.2018 21:00:00 4,0 1,0 8 4 NE - 10
19.01.2018 20:00:00 5,0 2,0 8 4 E - 10
19.01.2018 19:00:00 6,0 1,3 8 4 SE 1010,9 30
19.01.2018 18:00:00 8,0 2,0 11 6 WSW - 10
19.01.2018 17:00:00 11,0 2,0 16 9 W - 10
19.01.2018 16:00:00 12,4 2,2 9 5 SW 1008,5 60
19.01.2018 15:00:00 12,0 0,0 11 6 W - 10
19.01.2018 14:00:00 12,0 1,0 8 4 NW - 10
19.01.2018 13:00:00 9,6 0,1 15 8 SW 1008,4 10
19.01.2018 12:00:00 9,0 0,0 5 3 WSW - 10
19.01.2018 11:00:00 8,0 0,0 0 0 N - 10
19.01.2018 10:00:00 6,2 0,8 0 0 N 1009,0 10
19.01.2018 09:00:00 2,0 -1,0 0 0 N - 10
19.01.2018 08:00:00 1,0 -1,0 0 0 N - 10
19.01.2018 07:00:00 0,7 -1,6 0 0 N 1008,8 10
19.01.2018 06:00:00 0,0 -2,0 0 0 N - 10
19.01.2018 05:00:00 - - - - - - -
19.01.2018 04:00:00 0,9 -1,5 0 0 N 1008,6 10
19.01.2018 03:00:00 - - - - - - -
19.01.2018 02:00:00 - - - - - - -
19.01.2018 01:00:00 - - - - - - -
19.01.2018 00:00:00 2,0 0,0 0 0 N - 10
18.01.2018 23:00:00 2,0 -1,0 2 1 - - 10
18.01.2018 22:00:00 3,3 0,1 4 2 S 1011,7 10
18.01.2018 21:00:00 3,0 -1,0 5 3 S - 10
18.01.2018 20:00:00 8,0 0,0 8 4 WNW - 10
18.01.2018 19:00:00 7,1 -0,1 9 5 W 1012,1 10
18.01.2018 18:00:00 9,0 0,0 8 4 W - 10
18.01.2018 17:00:00 11,0 0,0 11 6 W - 10
18.01.2018 16:00:00 11,8 -0,3 11 6 W 1012,0 10
18.01.2018 15:00:00 12,0 -1,0 9 5 NW - 10
18.01.2018 14:00:00 12,0 -3,0 9 5 NW - 10
18.01.2018 13:00:00 10,2 -1,2 15 8 WSW 1014,2 10
18.01.2018 12:00:00 10,0 -3,0 4 2 - - 10
18.01.2018 11:00:00 8,0 -4,0 4 2 - - 10
18.01.2018 10:00:00 5,4 -2,7 5 3 N 1016,3 10
18.01.2018 09:00:00 2,0 -5,0 4 2 - - 10
18.01.2018 08:00:00 2,0 -4,0 5 3 NNW - 10
18.01.2018 07:00:00 0,6 -4,4 4 2 - 1016,0 10
18.01.2018 06:00:00 0,0 -4,0 2 1 - - 10
18.01.2018 05:00:00 0,0 -5,0 2 1 - - 10
18.01.2018 04:00:00 2,0 -5,3 5 3 NW 1016,4 10
18.01.2018 03:00:00 2,0 -5,0 11 6 SW - 10
18.01.2018 02:00:00 4,0 -6,0 5 3 W - 10
18.01.2018 01:00:00 3,1 -5,3 5 3 W 1016,6 10
18.01.2018 00:00:00 4,0 -4,0 8 4 WSW - 10
17.01.2018 23:00:00 4,0 -4,0 8 4 NNW - 10
17.01.2018 22:00:00 3,3 -3,0 5 3 W 1016,0 10
17.01.2018 21:00:00 4,0 -3,0 8 4 WSW - 10
17.01.2018 20:00:00 6,0 -4,0 5 3 WNW - 10
17.01.2018 19:00:00 6,0 -4,3 8 4 NW 1013,1 10
17.01.2018 18:00:00 6,0 -4,0 5 3 NNW - 10
17.01.2018 17:00:00 8,0 -6,0 8 4 WNW - 10
17.01.2018 16:00:00 8,4 -5,7 18 10 N 1010,1 10
17.01.2018 15:00:00 11,0 -5,0 18 10 WNW - 10
17.01.2018 14:00:00 9,0 3,0 11 6 W - 10
17.01.2018 13:00:00 7,0 3,6 13 7 W 1006,2 10
17.01.2018 12:00:00 8,0 3,0 15 8 WSW - 10
17.01.2018 11:00:00 7,0 3,0 9 5 NW - 10
17.01.2018 10:00:00 3,7 3,7 13 7 W 1003,9 3,0
17.01.2018 09:00:00 2,0 2,0 9 5 NNW - 1,2
17.01.2018 08:00:00 2,0 2,0 15 8 W - 0,4
17.01.2018 07:00:00 1,8 1,8 13 7 WSW 1001,7 0,5
17.01.2018 06:00:00 2,0 2,0 5 3 SSW - 2,0
17.01.2018 05:00:00 2,0 2,0 0 0 N - 0,5
17.01.2018 04:00:00 1,9 1,9 4 2 - 1001,0 -
17.01.2018 03:00:00 1,0 1,0 4 2 - - -
17.01.2018 02:00:00 0,0 0,0 5 3 ESE - -
17.01.2018 01:00:00 -0,1 -0,1 8 4 NE 1002,4 -
17.01.2018 00:00:00 0,0 0,0 4 2 - - 0,1
16.01.2018 23:00:00 0,0 0,0 5 3 S - 1,2
16.01.2018 22:00:00 1,3 1,1 0 0 N 1004,2 2,0
16.01.2018 21:00:00 2,0 2,0 2 1 - - 2,5
16.01.2018 20:00:00 2,0 1,0 2 1 - - 2,5
16.01.2018 19:00:00 3,1 2,6 2 1 - 1005,3 3,5
16.01.2018 18:00:00 4,0 3,0 5 3 WSW - 3,5
16.01.2018 17:00:00 5,0 4,0 8 4 WSW - 4,0
16.01.2018 16:00:00 5,2 3,7 8 4 SW 1007,0 4,0
16.01.2018 15:00:00 5,0 4,0 11 6 SW - 5
16.01.2018 14:00:00 5,0 4,0 9 5 SW - 5
16.01.2018 13:00:00 5,7 3,3 5 3 WNW 1009,7 5
16.01.2018 12:00:00 5,0 3,0 5 3 WNW - 6
16.01.2018 11:00:00 5,0 3,0 4 2 - - 4,0
16.01.2018 10:00:00 4,2 3,3 5 3 WSW 1011,9 4,0
16.01.2018 09:00:00 4,0 4,0 5 3 SW - 3,0
16.01.2018 08:00:00 4,0 4,0 8 4 WSW - 2,5
16.01.2018 07:00:00 3,9 3,7 5 3 SSW 1013,0 2,5
16.01.2018 06:00:00 4,0 4,0 4 2 - - 2,0
16.01.2018 05:00:00 4,0 4,0 4 2 - - 2,0
16.01.2018 04:00:00 3,9 3,8 4 2 S 1015,0 2,0
16.01.2018 03:00:00 4,0 4,0 4 2 SSW - 2,0
16.01.2018 02:00:00 4,0 4,0 0 0 N - 2,0
16.01.2018 01:00:00 4,1 4,1 2 1 SSW 1017,4 2,0
16.01.2018 00:00:00 4,0 4,0 0 0 N - 2,0
15.01.2018 23:00:00 4,0 4,0 2 1 S - 2,0
15.01.2018 22:00:00 4,1 3,9 4 2 S 1019,3 2,5
15.01.2018 21:00:00 4,0 4,0 0 0 N - 2,5
15.01.2018 20:00:00 4,0 4,0 4 2 S - 2,5
15.01.2018 19:00:00 4,6 3,7 0 0 N 1020,2 2,5
15.01.2018 18:00:00 5,0 4,0 4 2 - - 2,5
15.01.2018 17:00:00 5,0 4,0 0 0 N - 2,5
15.01.2018 16:00:00 4,7 3,6 5 3 SW 1021,9 3,0
15.01.2018 15:00:00 5,0 4,0 5 3 SW - 3,0
15.01.2018 14:00:00 5,0 4,0 8 4 SSW - 4,0
15.01.2018 13:00:00 4,5 3,4 4 2 - 1023,9 3,5
15.01.2018 12:00:00 4,0 4,0 4 2 - - 3,0
15.01.2018 11:00:00 3,0 3,0 5 3 SSW - 2,0
15.01.2018 10:00:00 2,4 2,4 4 2 - 1025,5 1,5
15.01.2018 09:00:00 2,0 2,0 5 3 SW - 2,0
15.01.2018 08:00:00 2,0 2,0 8 4 SW - 3,0
15.01.2018 07:00:00 1,6 1,6 5 3 SW 1024,6 5
15.01.2018 06:00:00 1,0 1,0 5 3 WSW - 3,0
15.01.2018 05:00:00 1,0 1,0 11 6 SW - 3,0
15.01.2018 04:00:00 1,1 1,1 9 5 SW 1024,5 2,0

tt = temperature
td = dewpoint
ff = wind speed
dd = wind direction
ppp = reduced air pressure
vv = visibility

Next stations